Wolf Creek

Latest Operating Information

Please note! Water release schedules often change without notice due to unanticipated changes in weather conditions and power system requirements.

Use caution near dams. A large amount of water may be discharged without warning at any time. Your safety depends on obeying all posted safety regulations and warnings. Learn more.

Generation Releases

Caption
Day Time Period Generators
7/16/2018 midnight - 7am 1
7/16/2018 7am - 4pm 0
7/16/2018 4pm - midnight 2 or more

Observed Data

Caption
Day Time (Eastern) Reservoir Elevation (behind dam)* Tailwater Elevation (below dam)* Average Hourly Discharge*
7/14/2018 2 AM 720.90 547.20 20
7/14/2018 3 AM 720.90 545.90 20
7/14/2018 4 AM 720.90 544.90 20
7/14/2018 5 AM 720.90 544.20 20
7/14/2018 6 AM 720.90 543.30 20
7/14/2018 7 AM 720.90 544.90 20
7/14/2018 8 AM 720.90 543.50 20
7/14/2018 9 AM 720.90 542.90 20
7/14/2018 10 AM 720.90 542.50 20
7/14/2018 11 AM 720.86 545.36 3,430
7/14/2018 noon 720.86 548.56 6,920
7/14/2018 1 PM 720.86 549.46 6,940
7/14/2018 2 PM 720.84 551.54 10,460
7/14/2018 3 PM 720.82 553.42 14,020
7/14/2018 4 PM 720.79 555.89 17,670
7/14/2018 5 PM 720.76 556.16 17,670
7/14/2018 6 PM 720.76 556.56 17,720
7/14/2018 7 PM 720.74 554.34 10,550
7/14/2018 8 PM 720.73 552.53 7,000
7/14/2018 9 PM 720.73 551.23 6,980
7/14/2018 10 PM 720.72 549.72 3,480
7/14/2018 11 PM 720.71 548.81 3,470
7/14/2018 midnight 720.70 547.60 3,460
7/15/2018 1 AM 720.69 547.49 3,460
7/15/2018 2 AM 720.69 545.69 0
7/15/2018 3 AM 720.69 544.69 20
7/15/2018 4 AM 720.69 543.99 20
7/15/2018 5 AM 720.69 543.49 20
7/15/2018 6 AM 720.69 543.09 20
7/15/2018 7 AM 720.70 542.60 20
7/15/2018 8 AM 720.70 542.40 20
7/15/2018 9 AM 720.70 542.30 20
7/15/2018 10 AM 720.70 542.30 20
7/15/2018 11 AM 720.71 545.61 3,440
7/15/2018 noon 720.68 548.38 6,920
7/15/2018 1 PM 720.66 549.46 6,940
7/15/2018 2 PM 720.65 551.15 10,490
7/15/2018 3 PM 720.64 553.94 14,020
7/15/2018 4 PM 720.62 555.42 17,670
7/15/2018 5 PM 720.61 555.71 17,670
7/15/2018 6 PM 720.59 555.19 14,140
7/15/2018 7 PM 720.57 554.27 10,550
7/15/2018 8 PM 720.55 553.35 10,520
7/15/2018 9 PM 720.53 552.43 7,000
7/15/2018 10 PM 720.52 551.32 3,500
7/15/2018 11 PM 720.52 549.82 3,480
7/15/2018 midnight 720.50 549.10 3,480

*Elevations are in feet above sea level. Discharges are in cubic feet per second and are reported at the end of the hour.

Notes:

Water release schedules are updated periodically throughout the day. Next-day release schedules are usually available by 6 p.m. of the current day.

Observed water levels also are updated periodically throughout the day. Predicted water levels are updated at least once a day, by 1 p.m. Eastern time, and may be updated more frequently when conditions warrant.

This project is owned and operated by the US Army Corps of Engineers (USACE). For more information, please visit their web site.

Reservoir Information

Get the most up-to-date information for the reservoirs, including today’s lake levels, predicted elevations, planned releases, reservoir operating guides, ecological health ratings, fish survey results, recreation facilities and more.

 

 

Lake Info App

Want your lake info to go? Download the TVA Lake Info app, an easy-to-use resource for operating on and around reservoirs and dams in the TVA region. Available for iPhone and Android devices.